Hourly Weather Luhove

Today, 10 May, Monday

Time Temperature Precipitation Wind Pressure Humidity
00:00 +9°C° 0 mm 2 mps 767 mmHg 58%
01:00 +8°C° 0 mm 2 mps 767 mmHg 59%
02:00 +8°C° 0 mm 2 mps 767 mmHg 60%
03:00 +8°C° 0 mm 2 mps 767 mmHg 61%
04:00 +8°C° 0 mm 2 mps 767 mmHg 62%
05:00 +8°C° 0 mm 2 mps 767 mmHg 63%
06:00 +9°C° 0 mm 2 mps 767 mmHg 58%
07:00 +12°C° 0 mm 2 mps 767 mmHg 53%
08:00 +14°C° 0 mm 2 mps 767 mmHg 48%
09:00 +15°C° 0 mm 1 mps 767 mmHg 45%
10:00 +16°C° 0 mm 1 mps 767 mmHg 41%
11:00 +18°C° 0 mm 1 mps 767 mmHg 38%
12:00 +18°C° 0 mm 2 mps 766 mmHg 38%
13:00 +18°C° 0 mm 2 mps 766 mmHg 37%
14:00 +18°C° 0 mm 3 mps 766 mmHg 37%
15:00 +18°C° 0 mm 3 mps 765 mmHg 38%
16:00 +18°C° 0 mm 3 mps 765 mmHg 40%
17:00 +18°C° 0 mm 3 mps 764 mmHg 41%
18:00 +16°C° 0 mm 3 mps 764 mmHg 47%
19:00 +14°C° 0 mm 3 mps 764 mmHg 54%
20:00 +12°C° 0 mm 3 mps 764 mmHg 60%
21:00 +12°C° 0 mm 3 mps 764 mmHg 60%
22:00 +11°C° 0 mm 3 mps 764 mmHg 59%
23:00 +10°C° 0 mm 3 mps 764 mmHg 59%

Tomorrow, 11 May, Tuesday

Time Temperature Precipitation Wind Pressure Humidity
00:00 +10°C° 0 mm 3 mps 764 mmHg 59%
01:00 +9°C° 0 mm 3 mps 763 mmHg 59%
02:00 +9°C° 0 mm 3 mps 763 mmHg 59%
03:00 +8°C° 0 mm 4 mps 763 mmHg 61%
04:00 +7°C° 0 mm 4 mps 763 mmHg 64%
05:00 +7°C° 0 mm 5 mps 762 mmHg 66%
06:00 +9°C° 0 mm 6 mps 762 mmHg 62%
07:00 +10°C° 0 mm 6 mps 762 mmHg 57%
08:00 +12°C° 0 mm 7 mps 762 mmHg 53%
09:00 +14°C° 0 mm 6 mps 761 mmHg 52%
10:00 +16°C° 0 mm 6 mps 761 mmHg 52%
11:00 +17°C° 0 mm 6 mps 761 mmHg 51%
12:00 +19°C° 0 mm 5 mps 760 mmHg 51%
13:00 +20°C° 0 mm 5 mps 760 mmHg 52%
14:00 +21°C° 0 mm 5 mps 759 mmHg 52%
15:00 +21°C° 0 mm 5 mps 759 mmHg 53%
16:00 +21°C° 0 mm 5 mps 759 mmHg 55%
17:00 +21°C° 0 mm 4 mps 758 mmHg 56%
18:00 +20°C° 0.1 mm 4 mps 758 mmHg 63%
19:00 +18°C° 0.1 mm 4 mps 758 mmHg 70%
20:00 +17°C° 0.1 mm 4 mps 758 mmHg 77%
21:00 +15°C° 0 mm 4 mps 758 mmHg 81%
22:00 +13°C° 0 mm 4 mps 758 mmHg 84%
23:00 +12°C° 0 mm 5 mps 758 mmHg 87%

Day after tomorrow, 12 May, Wednesday

Time Temperature Precipitation Wind Pressure Humidity
00:00 +12°C° 0 mm 5 mps 758 mmHg 87%
01:00 +11°C° 0 mm 4 mps 758 mmHg 87%
02:00 +11°C° 0 mm 4 mps 757 mmHg 87%
03:00 +9°C° 0 mm 5 mps 757 mmHg 88%
04:00 +8°C° 0 mm 5 mps 757 mmHg 88%
05:00 +7°C° 0 mm 5 mps 758 mmHg 89%
06:00 +8°C° 0 mm 5 mps 758 mmHg 82%
07:00 +9°C° 0 mm 5 mps 757 mmHg 74%
08:00 +11°C° 0 mm 4 mps 757 mmHg 67%
09:00 +12°C° 0 mm 4 mps 757 mmHg 62%
10:00 +13°C° 0 mm 3 mps 757 mmHg 56%
11:00 +14°C° 0 mm 3 mps 757 mmHg 51%
12:00 +16°C° 0 mm 2 mps 757 mmHg 50%
13:00 +16°C° 0 mm 2 mps 757 mmHg 50%
14:00 +16°C° 0 mm 1 mps 757 mmHg 49%
15:00 +16°C° 0 mm 1 mps 756 mmHg 49%
16:00 +16°C° 0 mm 1 mps 756 mmHg 49%
17:00 +16°C° 0 mm 1 mps 756 mmHg 50%
18:00 +15°C° 0 mm 1 mps 756 mmHg 53%
19:00 +14°C° 0 mm 1 mps 756 mmHg 56%
20:00 +14°C° 0 mm 1 mps 756 mmHg 59%
21:00 +13°C° 0.2 mm 1 mps 756 mmHg 63%
22:00 +13°C° 0.2 mm 2 mps 756 mmHg 67%
23:00 +12°C° 0.2 mm 2 mps 756 mmHg 72%

13 May, Thursday

Time Temperature Precipitation Wind Pressure Humidity
00:00 +12°C° 0 mm 2 mps 756 mmHg 72%
01:00 +11°C° 0 mm 3 mps 756 mmHg 73%
02:00 +11°C° 0 mm 3 mps 756 mmHg 74%
03:00 +11°C° 0 mm 3 mps 756 mmHg 75%
04:00 +10°C° 0 mm 4 mps 756 mmHg 77%
05:00 +10°C° 0 mm 4 mps 755 mmHg 78%
06:00 +12°C° 0 mm 4 mps 755 mmHg 74%
07:00 +13°C° 0 mm 4 mps 755 mmHg 69%
08:00 +15°C° 0 mm 4 mps 755 mmHg 65%
09:00 +17°C° 0 mm 4 mps 755 mmHg 63%
10:00 +18°C° 0 mm 4 mps 755 mmHg 62%
11:00 +19°C° 0 mm 4 mps 755 mmHg 60%
12:00 +19°C° 0 mm 4 mps 754 mmHg 58%
13:00 +20°C° 0 mm 4 mps 754 mmHg 56%
14:00 +21°C° 0 mm 5 mps 754 mmHg 53%
15:00 +20°C° 0 mm 4 mps 754 mmHg 55%
16:00 +19°C° 0 mm 4 mps 753 mmHg 56%
17:00 +19°C° 0 mm 4 mps 753 mmHg 58%
18:00 +17°C° 0 mm 4 mps 753 mmHg 64%
19:00 +15°C° 0 mm 4 mps 753 mmHg 71%
20:00 +13°C° 0 mm 3 mps 753 mmHg 77%
21:00 +13°C° 0 mm 3 mps 753 mmHg 80%
22:00 +13°C° 0 mm 4 mps 753 mmHg 84%
23:00 +12°C° 0 mm 4 mps 753 mmHg 87%

14 May, Friday

Time Temperature Precipitation Wind Pressure Humidity
00:00 +12°C° 0 mm 4 mps 753 mmHg 89%
01:00 +12°C° 0 mm 4 mps 753 mmHg 91%
02:00 +12°C° 0 mm 3 mps 753 mmHg 93%
03:00 +12°C° 0 mm 3 mps 753 mmHg 94%
04:00 +12°C° 0 mm 3 mps 753 mmHg 94%
05:00 +12°C° 0 mm 3 mps 753 mmHg 95%
06:00 +14°C° 0 mm 3 mps 754 mmHg 86%
07:00 +16°C° 0 mm 3 mps 754 mmHg 78%
08:00 +18°C° 0 mm 3 mps 754 mmHg 70%
09:00 +18°C° 0 mm 3 mps 754 mmHg 69%
10:00 +19°C° 0 mm 4 mps 754 mmHg 67%
11:00 +20°C° 0 mm 4 mps 755 mmHg 66%
12:00 +20°C° 0 mm 4 mps 755 mmHg 65%
13:00 +20°C° 0 mm 4 mps 755 mmHg 65%
14:00 +20°C° 0 mm 4 mps 755 mmHg 64%
15:00 +20°C° 0 mm 4 mps 755 mmHg 64%
16:00 +20°C° 0 mm 4 mps 755 mmHg 64%
17:00 +19°C° 0 mm 4 mps 755 mmHg 64%
18:00 +18°C° 0 mm 4 mps 755 mmHg 71%
19:00 +17°C° 0 mm 4 mps 755 mmHg 78%
20:00 +14°C° 0 mm 4 mps 755 mmHg 85%
21:00 +14°C° 0 mm 4 mps 755 mmHg 85%
22:00 +14°C° 0 mm 4 mps 755 mmHg 86%
23:00 +14°C° 0 mm 4 mps 756 mmHg 87%

15 May, Saturday

Time Temperature Precipitation Wind Pressure Humidity
00:00 +14°C° 0 mm 4 mps 756 mmHg 87%
01:00 +14°C° 0 mm 3 mps 756 mmHg 87%
02:00 +14°C° 0 mm 3 mps 756 mmHg 87%
03:00 +13°C° 0 mm 3 mps 756 mmHg 88%
04:00 +13°C° 0 mm 4 mps 756 mmHg 89%
05:00 +13°C° 0 mm 4 mps 756 mmHg 90%
06:00 +15°C° 0 mm 4 mps 756 mmHg 82%
07:00 +18°C° 0 mm 4 mps 756 mmHg 73%
08:00 +19°C° 0 mm 4 mps 756 mmHg 65%
09:00 +20°C° 0 mm 4 mps 756 mmHg 60%
10:00 +22°C° 0 mm 4 mps 756 mmHg 55%
11:00 +24°C° 0 mm 3 mps 757 mmHg 50%
12:00 +23°C° 0 mm 4 mps 757 mmHg 51%
13:00 +22°C° 0 mm 4 mps 757 mmHg 52%
14:00 +22°C° 0 mm 5 mps 757 mmHg 54%
15:00 +21°C° 0.4 mm 4 mps 757 mmHg 58%
16:00 +21°C° 0.4 mm 4 mps 757 mmHg 63%
17:00 +20°C° 0.4 mm 3 mps 757 mmHg 67%
18:00 +19°C° 0.4 mm 3 mps 757 mmHg 72%
19:00 +18°C° 0.4 mm 3 mps 758 mmHg 76%
20:00 +17°C° 0.4 mm 3 mps 758 mmHg 80%
21:00 +17°C° 0 mm 3 mps 758 mmHg 80%
22:00 +16°C° 0 mm 2 mps 758 mmHg 79%
23:00 +16°C° 0 mm 2 mps 758 mmHg 79%
Show more

We Need Your Consent

Meteoprog and our Service Providers may store and access personal data such as cookies, device identifiers or other similar technologies on your device and process such data to personalise content and ads, as well as provide social media features and to analyse the traffic.

  • Store and/or access information on your device

    Cookies, device identifiers or other information can be stored or accessed on your device for the purposes indicated above.

  • Personalised ads and content, ad and content measurement, audience insights, and products development

    Ads and content can be personalised based on a profile. More data can be added to better personalise ads and content. Ad and content performance can be measured. Insights about the audience who saw the ads and content can be derived. Such data can be used to develop or improve user’s experience, systems and software.

By clicking ‘I Agree’ you will allow the use of indicated cookies, device identifiers, web beacons or other similar technologies. Your settings can be changed in the browser on your device.

For certain purposes, legitimate interests may be relied on, rather than consent. You can read more about this in our Privacy and Cookie Policy.